OpenBCM V1.07b12 (Linux)

Packet Radio Mailbox

DB0FHN

[JN59NK Nuernberg]

 Login: GUEST





  
I6KZR  > KEPLER   25.04.03 12:59l 348 Lines 16510 Bytes #999 (0) @ WW
BID : 588_I6KZR
Read: DB0FHN GUEST
Subj: 2L Keplerian Elements #115
Path: DB0FHN<DB0ZWI<DB0HOT<OK0PKL<OK0PPL<RZ6HXA<SP7MGD<IK6PYS<I6ZLO<IK6WID
Sent: 030425/1050Z @:IK6WID.#AP.IMAR.ITA.EU #:37204 [MONTE URANO]  FBB7.00i
From: I6KZR@IK6WID.#AP.IMAR.ITA.EU
To  : KEPLER@WW





We the willing,
Led by the unknowing have done so much
with so little for so long
we are now qualified to do anything
with nothing, In no time at all.

Inviato da: I6KZR@IK6WID.#AP.IMAR.ITA.EU        

OSCAR 7
1 07530U 74089B   03114.65421652 -.00000029  00000-0  10000-3 0  1654
2 07530 101.7499 161.7987 0012176 313.3465  46.6589 12.53565273301347
GOES 2
1 10061U 77048A   03110.05256413 -.00000334  00000-0  00000+0 0  1593
2 10061  14.1502  12.9744 0012144 201.8149 158.0678  0.99401519 39439
GOES 3
1 10953U 78062A   03113.75292619  .00000000  00000-0  10000-3 0  9972
2 10953  13.4400  16.7544 0006742   5.4606 354.4988  1.00276429 44144
GOES 6
1 14050U 83041A   03113.84400045  .00000000  00000-0  10000-3 0  4415
2 14050  10.4794  35.1815 0006692  14.4325 345.5210  1.00316163131288
OSCAR 10
1 14129U 83058B   03112.06477433  .00000080  00000-0  10000-3 0  9297
2 14129  26.0883 154.0763 6002109 345.9118   2.9387  2.05866513121358
OSCAR 11 (UoSAT 2)
1 14781U 84021B   03115.20814020  .00001178  00000-0  16978-3 0  1301
2 14781  98.1277  89.6913 0009856   7.3607 352.7748 14.78189900 25936
NOAA 10
1 16969U 86073A   03114.47293390  .00000081  00000-0  51534-4 0  7473
2 16969  98.7357 108.4841 0011496 258.6435 101.3454 14.27090405863166
GOES 7
1 17561U 87022A   03114.40234750  .00000027  00000-0  10000-3 0  9378
2 17561   7.7257  55.1060 0004216 300.2533 180.8852  1.00275036 42390
COSMOS 1861
1 18129U 87054A   03114.09117468  .00000049  00000-0  36614-4 0  2271
2 18129  82.9199  98.8312 0013299  51.7421 308.4926 13.72707584793360
EUTELSAT 1-F4 (ECS 4)
1 18351U 87078B   03109.73832383 -.00000164  00000-0  00000+0 0   563
2 18351   7.3190  58.2907 0005923 199.9766 159.9270  0.98688674 43272
NOAA 11
1 19531U 88089A   03114.44475132  .00000185  00000-0  96245-4 0  5834
2 19531  98.8913 195.5834 0011864  22.9909 337.2266 14.14568428751976
ASTRA 1A
1 19688U 88109B   03113.70278637  .00000020  00000-0  10000-3 0  5998
2 19688   1.5525  93.4012 0005020 292.2898  83.8066  1.00271097 32843
OSCAR 14 (UOSAT 3)
1 20437U 90005B   03114.65424921  .00000075  00000-0  43674-4 0  2164
2 20437  98.2618 155.1227 0011412  13.2828 346.8653 14.31259588691803
OSCAR 15 (UOSAT 4)
1 20438U 90005C   03113.95169389 +.00000073 +00000-0 +43679-4 0 08069
2 20438 098.2395 143.3056 0010792 026.3278 333.8452 14.30215668691363
OSCAR 16 (PACSAT)
1 20439U 90005D   03113.67982229 +.00000149 +00000-0 +71492-4 0 08838
2 20439 098.3046 166.2468 0011401 023.0248 337.1491 14.31498145691700
OSCAR 17 (DOVE)
1 20440U 90005E   03113.72610452 +.00000101 +00000-0 +53506-4 0 07598
2 20440 098.3230 170.3324 0012027 019.9931 340.1722 14.31778011691784
OSCAR 18 (WEBERSAT)
1 20441U 90005F   03114.21610788  .00000089  00000-0  49194-4 0   659
2 20441  98.3207 169.9727 0012305  21.2358 338.9332 14.31578712691832
OSCAR 19 (LUSAT)
1 20442U 90005G   03113.69793733 +.00000118 +00000-0 +59907-4 0 09995
2 20442 098.3368 172.6168 0012617 021.1922 338.9782 14.31742956691813
JAS 1B (FUJI 2)
1 20480U 90013C   03113.94016040 -.00000053 +00000-0 -41560-4 0 04859
2 20480 099.0566 064.6211 0539743 218.0040 138.1803 12.83331195618776
HST
1 20580U 90037B   03115.05858332  .00003892  00000-0  30779-3 0  4040
2 20580  28.4690 332.5317 0004097 235.5315 256.1604 14.98096491512467
EUTELSAT 2-F1
1 20777U 90079B   03107.73895329 -.00000101  00000-0  10000-3 0   599
2 20777   3.6429  83.9611 0005743 340.4198 123.0711  1.00271821 26684
FENGYUN 1B
1 20788U 90081A   03114.82651957 -.00000197  00000-0 -99907-4 0  9352
2 20788  99.0355  96.4174 0017299  48.5581 311.7067 14.02150433646686
EUTELSAT 2-F2
1 21056U 91003B   03112.94275634 +.00000107 +00000-0 +10000-3 0 06386
2 21056 002.8865 087.2607 0005507 325.4954 185.6543 01.00270095032511
INFORMATOR 1
1 21087U 91006A   03113.96196517 +.00000052 +00000-0 +37891-4 0 06284
2 21087 082.9383 269.7025 0036978 070.8059 289.7089 13.74933191613730
COSMOS 2123
1 21089U 91007A   03114.55083539  .00000078  00000-0  66454-4 0  5073
2 21089  82.9212 133.1744 0030814 103.6662 256.7921 13.74411402612715
ASTRA 1B
1 21139U 91015A   03108.00000000  .00000114  00000-0  10000-3 0  1682
2 21139   0.0122 319.8851 0002995  65.1991 199.7843  1.00273184 32770
METEOSAT 5 (MOP 2)
1 21140U 91015B   03113.80447631  .00000008  00000-0  10000-3 0  8110
2 21140   5.7761  69.4802 0001224  27.0271 107.3185  1.00272709 46691
NOAA 12
1 21263U 91032A   03114.42799541  .00000202  00000-0  10457-3 0   545
2 21263  98.6340 103.0009 0012215 188.7984 171.2983 14.25126353620455
OSCAR 22 (UoSAT 5)
1 21575U 91050B   03115.20849098  .00000221  00000-0  84439-4 0  7822
2 21575  98.1483 104.0608 0006729 302.6317  57.4224 14.39201639617725
METEOR 3-5
1 21655U 91056A   03113.94592690 +.00000051 +00000-0 +10000-3 0 06146
2 21655 082.5590 353.3928 0014515 039.9920 320.2270 13.16981614561953
UARS
1 21701U 91063B   03114.14852722  .00000341  00000-0  44034-4 0  8772
2 21701  56.9794 130.6336 0005010  85.7264 274.4345 15.02993770635425
EUTELSAT 2-F3
1 21803U 91083A   03113.94483975  .00000115  00000-0  10000-3 0  5438
2 21803   2.7583  88.4129 0004853 280.1049 204.8220  1.00271774 37644
INMARSAT 2-F3
1 21814U 91084B   03113.97314242  .00000000  00000-0  10000-3 0  6528
2 21814   1.8727  60.0018 0004857 340.2774  19.6408  1.00273027 41532
INMARSAT 2-F4
1 21940U 92021B   03113.66465124 -.00000368  00000-0  10000-3 0  5899
2 21940   2.4133  21.7241 0002038   3.1438 174.7041  1.00270002 40325
EUTELSAT 2-F4
1 22028U 92041B   03110.98288196 -.00000110  00000-0  10000-3 0  3414
2 22028   1.8699  91.6949 0006284 280.5512 177.8938  1.00271843 32396
OSCAR 23 (KITSAT 1)
1 22077U 92052B   03113.93929209 -.00000037 +00000-0 +10000-3 0 02535
2 22077 066.0837 350.9260 0015550 259.6680 100.2585 12.86410729502588
ASTRA 1C
1 22653U 93031A   03108.00000000  .00000114  00000-0  10000-3 0  7961
2 22653   0.0122 319.8851 0002995  65.1991 199.7728  1.00273184 31470
METEOR 2-21
1 22782U 93055A   03115.05598530  .00000151  00000-0  12321-3 0  5779
2 22782  82.5484 162.9735 0023132 158.7724 201.4408 13.83537837487143
KITSAT B
1 22825U 93061C   03115.22265856  .00000078  00000-0  47152-4 0  5404
2 22825  98.2662 141.5543 0009606  65.3582 294.8600 14.28966071499259
POSAT 1
1 22826U 93061D   03114.89259926  .00000096  00000-0  53822-4 0  3430
2 22826  98.2695 142.3850 0010072  65.4672 294.7557 14.29191238499252
ITAMSAT
1 22828U 93061F   03114.15745902  .00000074  00000-0  45034-4 0  4797
2 22828  98.2632 141.9512 0010962  48.8859 311.3267 14.29529495467355
EYESAT A
1 22829U 93061G   03114.64449080  .00000140  00000-0  70309-4 0  5068
2 22829  98.2654 143.0536 0010861  47.5507 312.6596 14.29801508499355
METEOSAT 6
1 22912U 93073B   03110.98704862  .00000059  00000-0  00000+0 0  7662
2 22912   2.8246  82.1213 0002856 322.3450 169.6545  1.00284576 32911
GOES 8
1 23051U 94022A   03113.68258516 -.00000260  00000-0  00000+0 0  7016
2 23051   0.4560  99.5409 0005265 340.0009 301.5198  1.00256322 40459
ASTRA 1D
1 23331U 94070A   03110.76242513  .00000129  00000-0  10000-3 0  8341
2 23331   0.0732 159.7433 0002121 200.5301 146.8081  1.00275176 31488
RADIO ROSTO
1 23439U 94085A   03114.03878593 -.00000042  00000-0  23860-4 0  6974
2 23439  64.8138 297.2315 0146453 102.5715 259.1632 11.27548633342867
NOAA 14
1 23455U 94089A   03114.46395692  .00000085  00000-0  70369-4 0  6058
2 23455  99.1833 134.7362 0010117  51.2125 308.9950 14.13321757428648
HIMAWARI 5 (GMS 5)
1 23522U 95011B   03114.23456721 -.00000294  00000-0  00000+0 0  2010
2 23522   1.9077  83.4695 0001164 298.8967  54.0686  1.00276553 29533
HOT BIRD 1
1 23537U 95016B   03099.84635997  .00000088  00000-0  10000-3 0  5405
2 23537   0.0227 231.2698 0003930 159.6337 124.4056  1.00270936 29475
GOES 9
1 23581U 95025A   03114.29335630 -.00000214  00000-0  00000+0 0  6332
2 23581   0.1048 274.2522 0014528 244.6397 313.8346  1.00057195 29011
INMARSAT 3-F1
1 23839U 96020A   03112.88888631  .00000002  00000-0  10000-3 0  9197
2 23839   0.0724  23.4509 0004690  15.1337 195.8283  1.00269690 25840
ASTRA 1F
1 23842U 96021A   03108.00000000  .00000114  00000-0  10000-3 0  5670
2 23842   0.0122 319.8851 0002995  65.1991 199.7635  1.00273184 25707
JAS 2
1 24278U 96046B   03113.95829576 -.00000023 +00000-0 +10342-4 0 05780
2 24278 098.5483 256.4646 0351447 049.6580 313.4699 13.52879009330017
UNAMSAT
1 24305U 96052B   03113.81483821  .00000205  00000-0  20364-3 0  6801
2 24305  82.9330 215.2687 0032120  25.4627 334.8096 13.73460182332305
INMARSAT 3-F2
1 24307U 96053A   03114.94954284 -.00000138  00000-0  00000+0 0  1133
2 24307   0.0993  22.4006 0005494 346.1395 170.3944  1.00271717 24275
HOT BIRD 2
1 24665U 96067A   03104.95823611  .00000000  00000-0  10000-3 0  3497
2 24665   0.0337 189.6656 0009067 269.9979 100.9111  1.00271489 23811
INMARSAT 3-F3
1 24674U 96070A   03113.55977537  .00000024  00000-0  10000-3 0   330
2 24674   0.0999  59.7884 0003634 318.8502 212.1502  1.00273427 23224
GOES 10
1 24786U 97019A   03114.22426671  .00000071  00000-0  00000+0 0  6514
2 24786   0.3021 102.1533 0004316 318.6894  96.7676  1.00283652 21981
INMARSAT 3-F4
1 24819U 97027A   03109.94626291 -.00000294  00000-0  10000-3 0  9115
2 24819   0.0728  56.2227 0002727 326.0753 111.9722  1.00269505 21612
FENGYUN 2A
1 24834U 97029A   03113.75286428 -.00000211 +00000-0 +00000-0 0 00051
2 24834 002.7308 087.7206 0000322 297.2364 183.8620 01.00268081021482
HOT BIRD 3
1 24931U 97049A   03099.84635997  .00000088  00000-0  10000-3 0  4300
2 24931   0.0632  21.1145 0006301 353.2368 140.9901  1.00272510 20583
